"Sample Date","Sample Time","Sensor Name","Sample Value","Units","Flow Rate","Sample Interval","Sample Volume","Laser Status","Number Channels","Micron Size 0","Counts/Channel 0","Micron Size 1","Counts/Channel 1","Micron Size 2","Counts/Channel 2","Micron Size 3","Counts/Channel 3","Micron Size 4","Counts/Channel 4","Micron Size 5","Counts/Channel 5","Micron Size 6","Counts/Channel 6","Micron Size 7","Counts/Channel 7","Micron Size 8","Counts/Channel 8","Micron Size 9","Counts/Channel 9","Micron Size 10","Counts/Channel 10","Micron Size 11","Counts/Channel 11","Micron Size 12","Counts/Channel 12","Micron Size 13","Counts/Channel 13","Micron Size 14","Counts/Channel 14","Micron Size 15","Counts/Channel 15","Micron Size 16","Counts/Channel 16","Micron Size 17","Counts/Channel 17","Micron Size 18","Counts/Channel 18","Micron Size 19","Counts/Channel 19","Micron Size 20","Counts/Channel 20","Micron Size 21","Counts/Channel 21","Micron Size 22","Counts/Channel 22","Micron Size 23","Counts/Channel 23","Micron Size 24","Counts/Channel 24","Micron Size 25","Counts/Channel 25","Micron Size 26","Counts/Channel 26","Micron Size 27","Counts/Channel 27","Micron Size 28","Counts/Channel 28","Micron Size 29","Counts/Channel 29","Micron Size 30","Counts/Channel 30","Micron Size 31","Counts/Channel 31"
"07/12/06","12:00:01","AMMA06",76250.000,"cc",28308.336,6.00,2830.834,1,6,0.100,36451.000,0.200,32244.000,0.300,6846.000,0.500,472.000,1.000,237.000,5.000,0
"07/12/06","12:00:07","AMMA06",75259.000,"cc",28284.922,6.00,2828.492,1,6,0.100,35899.000,0.200,32035.000,0.300,6739.000,0.500,401.000,1.000,185.000,5.000,0
"07/12/06","12:00:13","AMMA06",74991.000,"cc",28312.318,6.00,2831.232,1,6,0.100,36024.000,0.200,31836.000,0.300,6607.000,0.500,372.000,1.000,152.000,5.000,0
"07/12/06","12:00:19","AMMA06",74896.000,"cc",28350.184,6.00,2835.019,1,6,0.100,35933.000,0.200,31854.000,0.300,6589.000,0.500,361.000,1.000,159.000,5.000,0
"07/12/06","12:00:25","AMMA06",74606.000,"cc",28324.809,6.00,2832.481,1,6,0.100,35787.000,0.200,31714.000,0.300,6662.000,0.500,320.000,1.000,123.000,5.000,0
"07/12/06","12:00:31","AMMA06",74819.000,"cc",28369.203,6.00,2836.920,1,6,0.100,36014.000,0.200,31346.000,0.300,6815.000,0.500,465.000,1.000,179.000,5.000,0
"07/12/06","12:00:37","AMMA06",76007.000,"cc",28292.166,6.00,2829.217,1,6,0.100,36514.000,0.200,31816.000,0.300,6876.000,0.500,581.000,1.000,220.000,5.000,0
"07/12/06","12:00:43","AMMA06",74158.000,"cc",28323.748,6.00,2832.375,1,6,0.100,35729.000,0.200,31391.000,0.300,6546.000,0.500,365.000,1.000,127.000,5.000,0
"07/12/06","12:00:49","AMMA06",74347.000,"cc",28275.916,6.00,2827.592,1,6,0.100,36152.000,0.200,31296.000,0.300,6415.000,0.500,361.000,1.000,123.000,5.000,0
"07/12/06","12:00:55","AMMA06",74048.000,"cc",28301.082,6.00,2830.108,1,6,0.100,36142.000,0.200,31048.000,0.300,6356.000,0.500,357.000,1.000,145.000,5.000,0
"07/12/06","12:01:01","AMMA06",76408.000,"cc",28369.039,6.00,2836.904,1,6,0.100,36640.000,0.200,31820.000,0.300,6943.000,0.500,690.000,1.000,315.000,5.000,0
"07/12/06","12:01:07","AMMA06",75096.000,"cc",28322.127,6.00,2832.213,1,6,0.100,36660.000,0.200,31373.000,0.300,6449.000,0.500,420.000,1.000,194.000,5.000,0
"07/12/06","12:01:13","AMMA06",75046.000,"cc",28294.369,6.00,2829.437,1,6,0.100,36518.000,0.200,31406.000,0.300,6513.000,0.500,423.000,1.000,186.000,5.000,0
"07/12/06","12:01:19","AMMA06",74227.000,"cc",28354.691,6.00,2835.469,1,6,0.100,36278.000,0.200,31039.000,0.300,6403.000,0.500,360.000,1.000,147.000,5.000,0
"07/12/06","12:01:25","AMMA06",74731.000,"cc",28300.369,6.00,2830.037,1,6,0.100,36498.000,0.200,31151.000,0.300,6511.000,0.500,412.000,1.000,159.000,5.000,0
"07/12/06","12:01:31","AMMA06",73955.000,"cc",28265.938,6.00,2826.594,1,6,0.100,36095.000,0.200,31011.000,0.300,6340.000,0.500,374.000,1.000,134.000,5.000,1.000
"07/12/06","12:01:37","AMMA06",74680.000,"cc",28315.523,6.00,2831.553,1,6,0.100,36228.000,0.200,31410.000,0.300,6492.000,0.500,378.000,1.000,172.000,5.000,0
"07/12/06","12:01:43","AMMA06",74366.000,"cc",28312.061,6.00,2831.206,1,6,0.100,36104.000,0.200,31223.000,0.300,6448.000,0.500,433.000,1.000,158.000,5.000,0
"07/12/06","12:01:49","AMMA06",75594.000,"cc",28309.545,6.00,2830.955,1,6,0.100,36472.000,0.200,31541.000,0.300,6761.000,0.500,531.000,1.000,289.000,5.000,0
"07/12/06","12:01:55","AMMA06",74997.000,"cc",28343.168,6.00,2834.317,1,6,0.100,36118.000,0.200,31544.000,0.300,6672.000,0.500,458.000,1.000,205.000,5.000,0
"07/12/06","12:02:01","AMMA06",74658.000,"cc",28359.881,6.00,2835.988,1,6,0.100,36047.000,0.200,31474.000,0.300,6574.000,0.500,380.000,1.000,183.000,5.000,0
"07/12/06","12:02:07","AMMA06",74762.000,"cc",28352.955,6.00,2835.296,1,6,0.100,35938.000,0.200,31562.000,0.300,6650.000,0.500,419.000,1.000,193.000,5.000,0
"07/12/06","12:02:13","AMMA06",74516.000,"cc",28313.844,6.00,2831.385,1,6,0.100,35926.000,0.200,31280.000,0.300,6695.000,0.500,450.000,1.000,165.000,5.000,0
"07/12/06","12:02:19","AMMA06",80300.000,"cc",28300.133,6.00,2830.013,1,6,0.100,38096.000,0.200,32496.000,0.300,7799.000,0.500,1273.000,1.000,636.000,5.000,0
"07/12/06","12:02:25","AMMA06",78654.000,"cc",28306.385,6.00,2830.639,1,6,0.100,37600.000,0.200,31951.000,0.300,7542.000,0.500,1012.000,1.000,549.000,5.000,0
"07/12/06","12:02:31","AMMA06",75165.000,"cc",28316.190,6.00,2831.619,1,6,0.100,36307.000,0.200,31486.000,0.300,6599.000,0.500,528.000,1.000,245.000,5.000,0
"07/12/06","12:02:37","AMMA06",75882.000,"cc",28300.086,6.00,2830.009,1,6,0.100,36372.000,0.200,31864.000,0.300,6835.000,0.500,549.000,1.000,262.000,5.000,0
"07/12/06","12:02:43","AMMA06",74762.000,"cc",28371.537,6.00,2837.154,1,6,0.100,36324.000,0.200,31227.000,0.300,6612.000,0.500,440.000,1.000,159.000,5.000,0
"07/12/06","12:02:49","AMMA06",75286.000,"cc",28322.436,6.00,2832.244,1,6,0.100,36567.000,0.200,31240.000,0.300,6690.000,0.500,541.000,1.000,248.000,5.000,0
"07/12/06","12:02:55","AMMA06",76551.000,"cc",28291.783,6.00,2829.179,1,6,0.100,37024.000,0.200,31653.000,0.300,6921.000,0.500,671.000,1.000,282.000,5.000,0
"07/12/06","12:03:01","AMMA06",74728.000,"cc",28284.705,6.00,2828.471,1,6,0.100,36453.000,0.200,31102.000,0.300,6477.000,0.500,484.000,1.000,212.000,5.000,0
"07/12/06","12:03:07","AMMA06",74924.000,"cc",28349.356,6.00,2834.936,1,6,0.100,36654.000,0.200,31093.000,0.300,6515.000,0.500,457.000,1.000,205.000,5.000,0
"07/12/06","12:03:13","AMMA06",75337.000,"cc",28289.916,6.00,2828.992,1,6,0.100,36881.000,0.200,31004.000,0.300,6622.000,0.500,554.000,1.000,275.000,5.000,1.000
"07/12/06","12:03:19","AMMA06",74686.000,"cc",28305.242,6.00,2830.524,1,6,0.100,36800.000,0.200,30875.000,0.300,6348.000,0.500,468.000,1.000,195.000,5.000,0
"07/12/06","12:03:25","AMMA06",74125.000,"cc",28283.875,6.00,2828.388,1,6,0.100,36441.000,0.200,30760.000,0.300,6354.000,0.500,439.000,1.000,131.000,5.000,0
"07/12/06","12:03:31","AMMA06",74373.000,"cc",28342.381,6.00,2834.238,1,6,0.100,36732.000,0.200,30777.000,0.300,6291.000,0.500,432.000,1.000,141.000,5.000,0
"07/12/06","12:03:37","AMMA06",74666.000,"cc",28280.531,6.00,2828.053,1,6,0.100,36757.000,0.200,30901.000,0.300,6435.000,0.500,411.000,1.000,162.000,5.000,0
"07/12/06","12:03:43","AMMA06",74900.000,"cc",28314.818,6.00,2831.482,1,6,0.100,37287.000,0.200,30857.000,0.300,6211.000,0.500,387.000,1.000,158.000,5.000,0
"07/12/06","12:03:49","AMMA06",74346.000,"cc",28333.861,6.00,2833.386,1,6,0.100,37050.000,0.200,30650.000,0.300,6162.000,0.500,358.000,1.000,126.000,5.000,0
"07/12/06","12:03:55","AMMA06",74515.000,"cc",28323.094,6.00,2832.310,1,6,0.100,37073.000,0.200,30779.000,0.300,6177.000,0.500,349.000,1.000,137.000,5.000,0
"07/12/06","12:04:01","AMMA06",73935.000,"cc",28331.172,6.00,2833.117,1,6,0.100,36951.000,0.200,30491.000,0.300,6029.000,0.500,333.000,1.000,131.000,5.000,0
"07/12/06","12:04:07","AMMA06",74279.000,"cc",28293.916,6.00,2829.392,1,6,0.100,37197.000,0.200,30477.000,0.300,6158.000,0.500,326.000,1.000,121.000,5.000,0
"07/12/06","12:04:13","AMMA06",74340.000,"cc",28269.668,6.00,2826.967,1,6,0.100,37370.000,0.200,30300.000,0.300,6203.000,0.500,348.000,1.000,119.000,5.000,0
"07/12/06","12:04:19","AMMA06",74385.000,"cc",28367.781,6.00,2836.778,1,6,0.100,37423.000,0.200,30548.000,0.300,6000.000,0.500,320.000,1.000,94.000,5.000,0
"07/12/06","12:04:25","AMMA06",74026.000,"cc",28323.238,6.00,2832.324,1,6,0.100,37187.000,0.200,30271.000,0.300,6097.000,0.500,367.000,1.000,104.000,5.000,0
"07/12/06","12:04:31","AMMA06",74764.000,"cc",28325.010,6.00,2832.501,1,6,0.100,37506.000,0.200,30728.000,0.300,6050.000,0.500,361.000,1.000,119.000,5.000,0
"07/12/06","12:04:37","AMMA06",75297.000,"cc",28274.596,6.00,2827.460,1,6,0.100,37764.000,0.200,30731.000,0.300,6284.000,0.500,373.000,1.000,145.000,5.000,0
"07/12/06","12:04:43","AMMA06",74643.000,"cc",28326.088,6.00,2832.609,1,6,0.100,37636.000,0.200,30417.000,0.300,6131.000,0.500,347.000,1.000,112.000,5.000,0
"07/12/06","12:04:49","AMMA06",74716.000,"cc",28333.383,6.00,2833.338,1,6,0.100,37727.000,0.200,30298.000,0.300,6212.000,0.500,335.000,1.000,144.000,5.000,0
"07/12/06","12:04:55","AMMA06",74366.000,"cc",28321.148,6.00,2832.115,1,6,0.100,37429.000,0.200,30341.000,0.300,6090.000,0.500,385.000,1.000,121.000,5.000,0
"07/12/06","12:05:01","AMMA06",74401.000,"cc",28349.012,6.00,2834.901,1,6,0.100,37314.000,0.200,30313.000,0.300,6237.000,0.500,388.000,1.000,149.000,5.000,0
"07/12/06","12:05:07","AMMA06",74577.000,"cc",28309.053,6.00,2830.906,1,6,0.100,37483.000,0.200,30505.000,0.300,6089.000,0.500,343.000,1.000,157.000,5.000,0
"07/12/06","12:05:13","AMMA06",74185.000,"cc",28291.871,6.00,2829.187,1,6,0.100,37388.000,0.200,30076.000,0.300,6232.000,0.500,362.000,1.000,127.000,5.000,0
"07/12/06","12:05:19","AMMA06",74860.000,"cc",28317.182,6.00,2831.718,1,6,0.100,37454.000,0.200,30773.000,0.300,6077.000,0.500,393.000,1.000,163.000,5.000,0
"07/12/06","12:05:25","AMMA06",74823.000,"cc",28347.508,6.00,2834.751,1,6,0.100,37401.000,0.200,30664.000,0.300,6157.000,0.500,436.000,1.000,165.000,5.000,0
"07/12/06","12:05:31","AMMA06",75554.000,"cc",28322.807,6.00,2832.281,1,6,0.100,37658.000,0.200,30623.000,0.300,6499.000,0.500,565.000,1.000,209.000,5.000,0
"07/12/06","12:05:37","AMMA06",75641.000,"cc",28269.037,6.00,2826.904,1,6,0.100,37674.000,0.200,30564.000,0.300,6536.000,0.500,609.000,1.000,258.000,5.000,0
"07/12/06","12:05:43","AMMA06",74774.000,"cc",28334.190,6.00,2833.419,1,6,0.100,37206.000,0.200,30654.000,0.300,6399.000,0.500,375.000,1.000,140.000,5.000,0
"07/12/06","12:05:49","AMMA06",74417.000,"cc",28331.473,6.00,2833.148,1,6,0.100,37233.000,0.200,30337.000,0.300,6261.000,0.500,383.000,1.000,203.000,5.000,0
"07/12/06","12:05:55","AMMA06",75830.000,"cc",28303.023,6.00,2830.303,1,6,0.100,37334.000,0.200,30791.000,0.300,6782.000,0.500,648.000,1.000,275.000,5.000,0
"07/12/06","12:06:01","AMMA06",77271.000,"cc",28335.633,6.00,2833.564,1,6,0.100,37455.000,0.200,31416.000,0.300,7148.000,0.500,817.000,1.000,435.000,5.000,0
"07/12/06","12:06:07","AMMA06",77794.000,"cc",28357.373,6.00,2835.738,1,6,0.100,37568.000,0.200,31662.000,0.300,7201.000,0.500,909.000,1.000,454.000,5.000,0
"07/12/06","12:06:13","AMMA06",77205.000,"cc",28295.971,6.00,2829.597,1,6,0.100,37495.000,0.200,31378.000,0.300,7061.000,0.500,826.000,1.000,445.000,5.000,0
"07/12/06","12:06:19","AMMA06",76086.000,"cc",28364.156,6.00,2836.416,1,6,0.100,37230.000,0.200,31052.000,0.300,6866.000,0.500,640.000,1.000,297.000,5.000,1.000
"07/12/06","12:06:25","AMMA06",74968.000,"cc",28283.502,6.00,2828.350,1,6,0.100,36784.000,0.200,30953.000,0.300,6613.000,0.500,430.000,1.000,188.000,5.000,0
"07/12/06","12:06:31","AMMA06",74338.000,"cc",28318.578,6.00,2831.858,1,6,0.100,36218.000,0.200,31219.000,0.300,6415.000,0.500,354.000,1.000,132.000,5.000,0
"07/12/06","12:06:37","AMMA06",74343.000,"cc",28292.553,6.00,2829.255,1,6,0.100,36196.000,0.200,31189.000,0.300,6462.000,0.500,362.000,1.000,134.000,5.000,0
"07/12/06","12:06:43","AMMA06",73946.000,"cc",28326.219,6.00,2832.622,1,6,0.100,36148.000,0.200,30929.000,0.300,6401.000,0.500,323.000,1.000,145.000,5.000,0
"07/12/06","12:06:49","AMMA06",74558.000,"cc",28306.166,6.00,2830.617,1,6,0.100,35869.000,0.200,31583.000,0.300,6499.000,0.500,428.000,1.000,179.000,5.000,0
"07/12/06","12:06:55","AMMA06",74956.000,"cc",28348.580,6.00,2834.858,1,6,0.100,36521.000,0.200,31192.000,0.300,6612.000,0.500,452.000,1.000,179.000,5.000,0
"07/12/06","12:07:01","AMMA06",75108.000,"cc",28333.022,6.00,2833.302,1,6,0.100,36678.000,0.200,31154.000,0.300,6660.000,0.500,415.000,1.000,201.000,5.000,0
"07/12/06","12:07:07","AMMA06",74688.000,"cc",28333.834,6.00,2833.384,1,6,0.100,36167.000,0.200,31359.000,0.300,6571.000,0.500,413.000,1.000,178.000,5.000,0
"07/12/06","12:07:13","AMMA06",75063.000,"cc",28343.824,6.00,2834.383,1,6,0.100,36767.000,0.200,31383.000,0.300,6410.000,0.500,367.000,1.000,136.000,5.000,0
"07/12/06","12:07:19","AMMA06",74275.000,"cc",28311.586,6.00,2831.159,1,6,0.100,36315.000,0.200,31099.000,0.300,6403.000,0.500,345.000,1.000,113.000,5.000,0
"07/12/06","12:07:25","AMMA06",75544.000,"cc",28280.043,6.00,2828.004,1,6,0.100,36576.000,0.200,31545.000,0.300,6706.000,0.500,537.000,1.000,180.000,5.000,0
"07/12/06","12:07:31","AMMA06",74553.000,"cc",28295.918,6.00,2829.592,1,6,0.100,36374.000,0.200,31163.000,0.300,6483.000,0.500,377.000,1.000,156.000,5.000,0
"07/12/06","12:07:37","AMMA06",74482.000,"cc",28283.465,6.00,2828.347,1,6,0.100,36434.000,0.200,31147.000,0.300,6400.000,0.500,369.000,1.000,132.000,5.000,0
"07/12/06","12:07:43","AMMA06",74550.000,"cc",28320.023,6.00,2832.002,1,6,0.100,36847.000,0.200,31043.000,0.300,6181.000,0.500,347.000,1.000,132.000,5.000,0
"07/12/06","12:07:49","AMMA06",74367.000,"cc",28351.318,6.00,2835.132,1,6,0.100,36789.000,0.200,30733.000,0.300,6324.000,0.500,375.000,1.000,146.000,5.000,0
"07/12/06","12:07:55","AMMA06",74703.000,"cc",28292.889,6.00,2829.289,1,6,0.100,36921.000,0.200,30837.000,0.300,6427.000,0.500,369.000,1.000,148.000,5.000,1.000
"07/12/06","12:08:01","AMMA06",73974.000,"cc",28293.738,6.00,2829.374,1,6,0.100,36483.000,0.200,30648.000,0.300,6367.000,0.500,358.000,1.000,118.000,5.000,0
"07/12/06","12:08:07","AMMA06",74616.000,"cc",28369.820,6.00,2836.982,1,6,0.100,37185.000,0.200,30589.000,0.300,6271.000,0.500,416.000,1.000,155.000,5.000,0
"07/12/06","12:08:13","AMMA06",74363.000,"cc",28327.518,6.00,2832.752,1,6,0.100,36841.000,0.200,30890.000,0.300,6147.000,0.500,370.000,1.000,115.000,5.000,0
"07/12/06","12:08:19","AMMA06",75586.000,"cc",28272.777,6.00,2827.278,1,6,0.100,37517.000,0.200,30931.000,0.300,6497.000,0.500,447.000,1.000,194.000,5.000,0
"07/12/06","12:08:25","AMMA06",75478.000,"cc",28366.518,6.00,2836.652,1,6,0.100,37559.000,0.200,30591.000,0.300,6508.000,0.500,574.000,1.000,246.000,5.000,0
"07/12/06","12:08:31","AMMA06",75328.000,"cc",28345.473,6.00,2834.547,1,6,0.100,37225.000,0.200,30994.000,0.300,6393.000,0.500,515.000,1.000,201.000,5.000,0
"07/12/06","12:08:37","AMMA06",75955.000,"cc",28357.871,6.00,2835.787,1,6,0.100,37770.000,0.200,30559.000,0.300,6721.000,0.500,611.000,1.000,294.000,5.000,0
"07/12/06","12:08:43","AMMA06",77317.000,"cc",28303.824,6.00,2830.383,1,6,0.100,38010.000,0.200,30970.000,0.300,7075.000,0.500,880.000,1.000,382.000,5.000,0
"07/12/06","12:08:49","AMMA06",75812.000,"cc",28251.084,6.00,2825.109,1,6,0.100,37869.000,0.200,30494.000,0.300,6601.000,0.500,613.000,1.000,235.000,5.000,0
"07/12/06","12:08:55","AMMA06",75625.000,"cc",28293.285,6.00,2829.329,1,6,0.100,37832.000,0.200,30309.000,0.300,6560.000,0.500,661.000,1.000,263.000,5.000,0
"07/12/06","12:09:01","AMMA06",76502.000,"cc",28327.711,6.00,2832.771,1,6,0.100,38120.000,0.200,30799.000,0.300,6635.000,0.500,669.000,1.000,279.000,5.000,0
"07/12/06","12:09:07","AMMA06",74905.000,"cc",28312.147,6.00,2831.215,1,6,0.100,37323.000,0.200,30398.000,0.300,6384.000,0.500,576.000,1.000,224.000,5.000,0
"07/12/06","12:09:13","AMMA06",74273.000,"cc",28328.621,6.00,2832.862,1,6,0.100,37417.000,0.200,30280.000,0.300,6048.000,0.500,379.000,1.000,149.000,5.000,0
"07/12/06","12:09:19","AMMA06",74299.000,"cc",28340.309,6.00,2834.031,1,6,0.100,37116.000,0.200,30468.000,0.300,6135.000,0.500,419.000,1.000,161.000,5.000,0
"07/12/06","12:09:25","AMMA06",73648.000,"cc",28269.420,6.00,2826.942,1,6,0.100,37166.000,0.200,30003.000,0.300,6003.000,0.500,348.000,1.000,128.000,5.000,0
"07/12/06","12:09:31","AMMA06",74124.000,"cc",28310.502,6.00,2831.050,1,6,0.100,37288.000,0.200,30354.000,0.300,6031.000,0.500,319.000,1.000,132.000,5.000,0
"07/12/06","12:09:37","AMMA06",75107.000,"cc",28312.910,6.00,2831.291,1,6,0.100,37677.000,0.200,30474.000,0.300,6325.000,0.500,441.000,1.000,190.000,5.000,0
"07/12/06","12:09:43","AMMA06",74302.000,"cc",28378.893,6.00,2837.889,1,6,0.100,37353.000,0.200,30166.000,0.300,6225.000,0.500,419.000,1.000,139.000,5.000,0
"07/12/06","12:09:49","AMMA06",74926.000,"cc",28300.576,6.00,2830.058,1,6,0.100,37916.000,0.200,30138.000,0.300,6266.000,0.500,453.000,1.000,153.000,5.000,0
"07/12/06","12:09:55","AMMA06",74612.000,"cc",28320.672,6.00,2832.067,1,6,0.100,37932.000,0.200,30004.000,0.300,6093.000,0.500,432.000,1.000,151.000,5.000,0
"07/12/06","12:10:01","AMMA06",74015.000,"cc",28318.242,6.00,2831.825,1,6,0.100,37442.000,0.200,29948.000,0.300,6115.000,0.500,390.000,1.000,120.000,5.000,0
"07/12/06","12:10:07","AMMA06",76337.000,"cc",28327.758,6.00,2832.776,1,6,0.100,38492.000,0.200,30572.000,0.300,6518.000,0.500,533.000,1.000,222.000,5.000,0
"07/12/06","12:10:13","AMMA06",74248.000,"cc",28317.623,6.00,2831.763,1,6,0.100,37264.000,0.200,30260.000,0.300,6080.000,0.500,453.000,1.000,191.000,5.000,0
"07/12/06","12:10:19","AMMA06",73602.000,"cc",28287.602,6.00,2828.760,1,6,0.100,37378.000,0.200,29622.000,0.300,6113.000,0.500,348.000,1.000,141.000,5.000,0
"07/12/06","12:10:25","AMMA06",74561.000,"cc",28294.467,6.00,2829.447,1,6,0.100,37409.000,0.200,30174.000,0.300,6263.000,0.500,515.000,1.000,200.000,5.000,0
"07/12/06","12:10:31","AMMA06",74174.000,"cc",28278.018,6.00,2827.802,1,6,0.100,37275.000,0.200,30215.000,0.300,6155.000,0.500,375.000,1.000,154.000,5.000,0
"07/12/06","12:10:37","AMMA06",80691.000,"cc",28322.563,6.00,2832.256,1,6,0.100,39391.000,0.200,31607.000,0.300,7835.000,0.500,1256.000,1.000,602.000,5.000,0
"07/12/06","12:10:43","AMMA06",80976.000,"cc",28405.836,6.00,2840.584,1,6,0.100,39652.000,0.200,31706.000,0.300,7671.000,0.500,1322.000,1.000,625.000,5.000,0
"07/12/06","12:10:49","AMMA06",75083.000,"cc",28303.805,6.00,2830.381,1,6,0.100,37450.000,0.200,30600.000,0.300,6323.000,0.500,502.000,1.000,207.000,5.000,1.000
"07/12/06","12:10:55","AMMA06",74914.000,"cc",28345.279,6.00,2834.528,1,6,0.100,37045.000,0.200,30513.000,0.300,6545.000,0.500,565.000,1.000,246.000,5.000,0
"07/12/06","12:11:01","AMMA06",75385.000,"cc",28295.938,6.00,2829.594,1,6,0.100,37342.000,0.200,30792.000,0.300,6466.000,0.500,549.000,1.000,236.000,5.000,0
"07/12/06","12:11:07","AMMA06",76212.000,"cc",28314.082,6.00,2831.408,1,6,0.100,37662.000,0.200,30788.000,0.300,6769.000,0.500,688.000,1.000,305.000,5.000,0
"07/12/06","12:11:13","AMMA06",75617.000,"cc",28284.121,6.00,2828.412,1,6,0.100,36939.000,0.200,31163.000,0.300,6641.000,0.500,609.000,1.000,265.000,5.000,0
"07/12/06","12:11:19","AMMA06",74581.000,"cc",28309.635,6.00,2830.964,1,6,0.100,36890.000,0.200,30346.000,0.300,6651.000,0.500,510.000,1.000,184.000,5.000,0
"07/12/06","12:11:25","AMMA06",75773.000,"cc",28313.535,6.00,2831.354,1,6,0.100,37261.000,0.200,31051.000,0.300,6636.000,0.500,583.000,1.000,242.000,5.000,0
"07/12/06","12:11:31","AMMA06",75753.000,"cc",28347.510,6.00,2834.751,1,6,0.100,37173.000,0.200,31110.000,0.300,6531.000,0.500,613.000,1.000,326.000,5.000,0
"07/12/06","12:11:37","AMMA06",75146.000,"cc",28347.420,6.00,2834.742,1,6,0.100,37070.000,0.200,30495.000,0.300,6495.000,0.500,752.000,1.000,334.000,5.000,0
"07/12/06","12:11:43","AMMA06",74806.000,"cc",28252.934,6.00,2825.294,1,6,0.100,36731.000,0.200,31010.000,0.300,6396.000,0.500,461.000,1.000,206.000,5.000,2.000
"07/12/06","12:11:49","AMMA06",74361.000,"cc",28327.100,6.00,2832.710,1,6,0.100,36531.000,0.200,30682.000,0.300,6452.000,0.500,500.000,1.000,196.000,5.000,0
"07/12/06","12:11:55","AMMA06",74216.000,"cc",28357.352,6.00,2835.735,1,6,0.100,36576.000,0.200,30769.000,0.300,6337.000,0.500,394.000,1.000,140.000,5.000,0
"07/12/06","12:12:01","AMMA06",75119.000,"cc",28335.975,6.00,2833.598,1,6,0.100,36707.000,0.200,30670.000,0.300,6717.000,0.500,675.000,1.000,350.000,5.000,0
"07/12/06","12:12:07","AMMA06",74746.000,"cc",28304.668,6.00,2830.467,1,6,0.100,36461.000,0.200,30911.000,0.300,6591.000,0.500,565.000,1.000,217.000,5.000,1.000
"07/12/06","12:12:13","AMMA06",75493.000,"cc",28293.656,6.00,2829.366,1,6,0.100,37073.000,0.200,31001.000,0.300,6619.000,0.500,525.000,1.000,273.000,5.000,2.000
"07/12/06","12:12:19","AMMA06",74634.000,"cc",28292.441,6.00,2829.244,1,6,0.100,36695.000,0.200,30808.000,0.300,6463.000,0.500,451.000,1.000,217.000,5.000,0
"07/12/06","12:12:25","AMMA06",74013.000,"cc",28346.570,6.00,2834.657,1,6,0.100,36457.000,0.200,30547.000,0.300,6387.000,0.500,447.000,1.000,175.000,5.000,0
"07/12/06","12:12:31","AMMA06",73834.000,"cc",28331.547,6.00,2833.155,1,6,0.100,36665.000,0.200,30482.000,0.300,6240.000,0.500,332.000,1.000,115.000,5.000,0
"07/12/06","12:12:37","AMMA06",74183.000,"cc",28310.121,6.00,2831.012,1,6,0.100,36370.000,0.200,30907.000,0.300,6338.000,0.500,410.000,1.000,158.000,5.000,0
"07/12/06","12:12:43","AMMA06",74461.000,"cc",28326.826,6.00,2832.683,1,6,0.100,36765.000,0.200,30785.000,0.300,6444.000,0.500,319.000,1.000,148.000,5.000,0
"07/12/06","12:12:49","AMMA06",73704.000,"cc",28297.744,6.00,2829.775,1,6,0.100,36227.000,0.200,30710.000,0.300,6322.000,0.500,342.000,1.000,103.000,5.000,0
"07/12/06","12:12:55","AMMA06",73889.000,"cc",28301.094,6.00,2830.110,1,6,0.100,36526.000,0.200,30440.000,0.300,6408.000,0.500,372.000,1.000,143.000,5.000,0
"07/12/06","12:13:01","AMMA06",73918.000,"cc",28309.883,6.00,2830.989,1,6,0.100,36732.000,0.200,30392.000,0.300,6263.000,0.500,370.000,1.000,161.000,5.000,0
"07/12/06","12:13:07","AMMA06",74855.000,"cc",28281.258,6.00,2828.126,1,6,0.100,37130.000,0.200,30887.000,0.300,6223.000,0.500,443.000,1.000,172.000,5.000,0
"07/12/06","12:13:13","AMMA06",74156.000,"cc",28346.615,6.00,2834.662,1,6,0.100,36896.000,0.200,30402.000,0.300,6302.000,0.500,395.000,1.000,161.000,5.000,0
"07/12/06","12:13:19","AMMA06",74574.000,"cc",28378.006,6.00,2837.801,1,6,0.100,36953.000,0.200,30643.000,0.300,6285.000,0.500,482.000,1.000,211.000,5.000,0
"07/12/06","12:13:25","AMMA06",73296.000,"cc",28285.719,6.00,2828.572,1,6,0.100,36519.000,0.200,30081.000,0.300,6246.000,0.500,346.000,1.000,104.000,5.000,0
"07/12/06","12:13:31","AMMA06",74010.000,"cc",28303.805,6.00,2830.381,1,6,0.100,37002.000,0.200,30413.000,0.300,6142.000,0.500,337.000,1.000,116.000,5.000,0
"07/12/06","12:13:37","AMMA06",74429.000,"cc",28327.752,6.00,2832.775,1,6,0.100,37208.000,0.200,30239.000,0.300,6358.000,0.500,419.000,1.000,205.000,5.000,0
"07/12/06","12:13:43","AMMA06",73745.000,"cc",28354.902,6.00,2835.491,1,6,0.100,36997.000,0.200,30041.000,0.300,6169.000,0.500,393.000,1.000,145.000,5.000,0
"07/12/06","12:13:49","AMMA06",73573.000,"cc",28271.688,6.00,2827.169,1,6,0.100,36844.000,0.200,30007.000,0.300,6188.000,0.500,400.000,1.000,134.000,5.000,0
"07/12/06","12:13:55","AMMA06",73670.000,"cc",28292.324,6.00,2829.233,1,6,0.100,36941.000,0.200,30159.000,0.300,6027.000,0.500,383.000,1.000,160.000,5.000,0
"07/12/06","12:14:01","AMMA06",73757.000,"cc",28335.619,6.00,2833.562,1,6,0.100,37224.000,0.200,29989.000,0.300,6036.000,0.500,372.000,1.000,136.000,5.000,0
"07/12/06","12:14:07","AMMA06",73925.000,"cc",28287.328,6.00,2828.733,1,6,0.100,37416.000,0.200,29958.000,0.300,6063.000,0.500,344.000,1.000,144.000,5.000,0
"07/12/06","12:14:13","AMMA06",73622.000,"cc",28363.461,6.00,2836.346,1,6,0.100,37350.000,0.200,29792.000,0.300,6009.000,0.500,361.000,1.000,110.000,5.000,0